This demonstration page uses our WeatherBlox Daily Observations layout. Learn more.

Left ArrowRight Arrow

34.74481, -87.66753

Hourly Observations for February 16, 2018

Temp ( °F °C ) Dew Point ( °F °C ) Humidity (%) Winds ( mph kmh ) Pressure ( in mb ) Visibility ( mi km ) Precip ( " mm )
12:53 am 00:53 Mostly Clear 67 19.4 58 14.4 73 73 SW 12 19 30.00 1016 10 16 0.00 0.00
1:53 am 01:53 Cloudy 68 20 58 14.4 70 70 SSW 14 22 29.98 1015 10 16 0.00 0.00
2:53 am 02:53 Cloudy 68 20 58 14.4 70 70 SW 15 24 29.98 1015 10 16 0.00 0.00
3:53 am 03:53 Cloudy 67 19.4 58 14.4 73 73 SW 15 24 29.96 1015 10 16 0.00 0.00
4:53 am 04:53 Cloudy 67 19.4 58 14.4 73 73 WSW 15 24 29.96 1015 10 16 0.00 0.00
5:53 am 05:53 Cloudy 66 18.9 58 14.4 75 75 SW 13 20 29.98 1015 10 16 0.00 0.00
6:53 am 06:53 Cloudy 66 18.9 58 14.4 75 75 SW 14 22 29.99 1016 10 16 0.00 0.00
7:53 am 07:53 Cloudy 66 18.9 58 14.4 75 75 WSW 16 26 30.02 1017 10 16 0.00 0.00
8:53 am 08:53 Cloudy 66 18.9 59 15 78 78 WSW 18 30 30.03 1017 10 16 0.00 0.00
9:53 am 09:53 Cloudy 66 18.9 59 15 78 78 WSW 15 24 30.03 1017 10 16 0.00 0.00
10:20 am 10:20 Cloudy with Haze 65 18.3 60 15.6 84 84 W 13 20 30.03 1017 5 8 0.00 0.00
10:53 am 10:53 Cloudy with Light Rain 58 14.4 54 12.2 87 87 NNW 17 28 30.09 1019 3 4 0.01 0.25
10:57 am 10:57 Cloudy with Light Rain 58 14.4 54 12.2 87 87 NNW 15 24 30.09 1019 3 4 0.00 0.03
11:07 am 11:07 Cloudy with Mist and Fog 57 13.9 54 12.2 90 90 N 10 17 30.09 1019 4 6 0.00 0.03
11:45 am 11:45 Cloudy with Light Rain 53 11.7 50 10 89 89 N 13 20 30.15 1021 2 3 0.00 0.03
11:53 am 11:53 Cloudy with Light Rain 53 11.7 49 9.4 86 86 NNW 14 22 30.14 1021 2 3 0.00 0.03
12:01 pm 12:01 Cloudy with Light Rain 52 11.1 49 9.4 89 89 N 12 19 30.15 1021 2 2 0.01 0.25
12:08 pm 12:08 Cloudy with Light Rain 51 10.6 48 8.9 89 89 N 14 22 30.15 1021 2 3 0.01 0.25
12:18 pm 12:18 Cloudy with Haze 51 10.6 46 7.8 83 83 N 13 20 30.15 1021 5 8 0.01 0.25
12:46 pm 12:46 Cloudy 50 10 44 6.7 80 80 NNE 16 26 30.18 1022 10 16 0.01 0.25
12:53 pm 12:53 Cloudy 50 10 44 6.7 80 80 N 10 17 30.16 1021 9 14 0.01 0.25
1:16 pm 13:16 Cloudy 51 10.6 44 6.7 77 77 VRB 7 11 30.18 1022 10 16 0.00 0.00
1:49 pm 13:49 Cloudy 52 11 45 7 77 77 N 7 11 30.18 1022 10 16 0.00 0.00
1:53 pm 13:53 Cloudy 51 10.6 44 6.7 77 77 N 12 19 30.16 1021 10 16 0.00 0.00
2:53 pm 14:53 Cloudy 51 10.6 44 6.7 77 77 N 6 9 30.18 1022 10 16 0.00 0.00
3:53 pm 15:53 Cloudy 51 10.6 44 6.7 77 77 NNE 10 17 30.20 1023 10 16 0.00 0.00
4:53 pm 16:53 Cloudy 50 10 43 6.1 77 77 NNE 7 11 30.21 1023 10 16 0.00 0.00
5:53 pm 17:53 Cloudy 50 10 43 6.1 77 77 NNE 13 20 30.23 1024 10 16 0.00 0.00
6:15 pm 18:15 Cloudy 49 9.4 43 6.1 80 80 NNE 12 19 30.24 1024 10 16 0.00 0.00
6:53 pm 18:53 Cloudy 49 9.4 43 6.1 80 80 NNE 10 17 30.24 1024 10 16 0.00 0.00
7:53 pm 19:53 Cloudy 48 8.9 42 5.6 80 80 NNE 8 13 30.24 1024 10 16 0.00 0.00
8:53 pm 20:53 Cloudy 47 8.3 41 5 80 80 NE 9 15 30.25 1024 9 14 0.00 0.00
9:21 pm 21:21 Cloudy 47 8.3 39 3.9 74 74 NE 9 15 30.24 1024 10 16 0.00 0.00
9:46 pm 21:46 Mostly Cloudy 47 8.3 39 3.9 74 74 NE 9 15 30.24 1024 9 14 0.00 0.00
9:53 pm 21:53 Mostly Cloudy 47 8.3 39 3.9 74 74 NNE 9 15 30.24 1024 9 14 0.00 0.00
10:22 pm 22:22 Cloudy 46 7.8 39 3.9 77 77 ENE 6 9 30.24 1024 9 14 0.00 0.00
10:53 pm 22:53 Mostly Cloudy 46 7.8 39 3.9 77 77 NE 8 13 30.22 1024 8 13 0.00 0.00
11:53 pm 23:53 Mostly Cloudy 46 7.8 40 4.4 79 79 NE 6 9 30.21 1023 7 11 0.00 0.00

Powered by AerisWeather